Regional Weather Roundup
Issued by NWS

Home | Current Version | Previous Version | Graphics & Text | Print | Product List | Glossary On
Versions: 1 2 3 4 5 6 7 8 9 10 11 12 13 14 15 16 17 18 19 20 21 22 23 24 25 26 27 28 29 30 31 32 33 34 35 36 37 38 39 40 41 42 43 44 45 46 47 48 49 50
000
ASUS45 KCYS 102010
RWRWY

WYOMING REGIONAL WEATHER ROUNDUP
NATIONAL WEATHER SERVICE CHEYENNE WY
100 PM MST SAT DEC 10 2016

NOTE:  "FAIR" INDICATES FEW OR NO CLOUDS BELOW 12,000 FEET
WITH NO SIGNIFICANT WEATHER AND/OR OBSTRUCTIONS TO VISIBILITY.

WYZ001-102100-
YELLOWSTONE NATIONAL PARK

CITY           SKY/WX    TMP DP  RH WIND       PRES   REMARKS
LK YELLOWSTONE   N/A     28  25  88 VRB7G20   29.64F WCI  21
W YELLOWSTONE  NOT AVBL

$$
WYZ002>013-054>058-071-098>099-102100-
NORTHERN WYOMING

CITY           SKY/WX    TMP DP  RH WIND       PRES   REMARKS
JACKSON        PTSUNNY   34  34 100 S21       29.68F WCI  22
CODY           FAIR      27  17  66 VRB3      29.58F
GREYBULL       FAIR      18   5  57 CALM      29.66F
WORLAND        FAIR      18   7  62 CALM      29.65F
SHERIDAN       FAIR      19   9  65 CALM      29.62F
BUFFALO        FAIR      29  19  66 CALM      29.61F
GILLETTE       FAIR      17  12  80 S8        29.65F WCI   7
HULETT         MOCLDY    18  10  73 CALM      29.68F
NEWCASTLE      FAIR      10   3  72 CALM      29.73F

$$
WYZ014>020-022>026-101>103-102100-
CENTRAL WYOMING

CITY           SKY/WX    TMP DP  RH WIND       PRES   REMARKS
BIG PINEY      FAIR      37  31  78 SW8       29.76F WCI  31
PINEDALE       FAIR      36  30  80 MISG      29.75F
DUBOIS         LGT SNOW  32  28  86 NW13      29.64F WCI  22
LANDER         FAIR      39  23  52 VRB3      29.63F
RIVERTON       FAIR      29  15  56 CALM      29.65F
CASPER         FAIR      40  30  67 SW23G29   29.66F WCI  30
DOUGLAS        FAIR      44  30  57 W26G33    29.65F

$$
WYZ021-027>030-104>119-102100-
SOUTHERN WYOMING

CITY           SKY/WX    TMP DP  RH WIND       PRES   REMARKS
EVANSTON       LGT SNOW  33  31  92 SW16      29.85F FOG     WCI  23
KEMMERER         N/A     34  32  93 SW20G25   29.81F WCI  22
FORT BRIDGER   FAIR      40  37  90 W28G38    29.84F WCI  28
ROCK SPRINGS   CLOUDY    39  31  72 W18       29.80F WCI  30
DIXON          CLOUDY    38  28  67 SW17G25   29.91F WCI  29
RAWLINS        CLOUDY    39  25  57 W22G37    29.75F WCI  29
SARATOGA       FAIR      41  28  60 SW21G38   29.80F
LARAMIE        CLOUDY    40  25  55 S13         N/A  WCI  32
CHEYENNE       FAIR      48  25  40 W31G41    29.74F
TORRINGTON     FAIR      26  17  68 E8        29.70F WCI  18
PINE BLUFFS    FAIR      37  28  70 S8        29.76F WCI  31

$$



USA.gov is the U.S. government's official web portal to all federal, state and local government web resources and services.